Starlink 3926

operational
NORAD ID: 52543 Int'l Des: 2022-051 Owner: SPXS Country: US Constellation: starlink
LEOCIRCULAR

About Starlink 3926

Description loading...

Live Position

Loading 3D Globe...

Upcoming Passes

Altitude History

Altitude vs Time

uPlot chart will show altitude changes over time

Two-Line Element Set

1 52543U 22051L 25347.64583817 .00000347 00000-0 39878-4 0 9995
2 52543 53.2168 155.3874 0001293 93.4165 266.6975 15.08835262198450
Epoch: Dec 13, 2025 • Age: 15 hours

Current Status

Altitude 542.6 km
Velocity 7.60 km/s
Sub-Earth Point 40.26°N, 114.92°E
Launch Date May 13, 2022
Age 3.5 years
Type internet

Technical Details

Classification Payload
Mass 297.00 kg
Dry Mass 275.00 kg
Total Mass 297.00 kg
Length 0.20 m
Diameter 2.80 m
Span 9.00 m
Shape Box + pan
Manufacturer SPXS
Bus Type Starlink
Phase Status In Orbit
Owner/State SPXS/US

Large Constellations

Loading constellations...